SCP
0 0 0 0 0 0 0 0 0 0 0 0 0 0 0 0 0 0 0 -0 0 0 0 0 0 0 0 0 0 0 0 0 0 0 0 0 0 0
0 0 0 0 -0 0 0 0 0 0 0 0 0 0 0 0 0 0 0 0 0 -0 0 0 0 0 0 0 0 0 0 0 0 0 0 0 0 0
0 0 0 0 0 0 0 0 0 0 0 0 0 0 0 0 0 0 0 0 -0 -0 0 0 0 0 0 0 0 0 0 0 0 0 0 0 0 0
0 0 0 0 0 0 0 0 0 0 0 0 0 0 0 0 0 0 0 -0 -0 -0 0 0 0 0 0 0 0 0 0 0 0 0 0 0 0 0
0 0 0 0 0 0 0 0 0 0 0 0 0 0 0 0 0 0 0 0 0 0 0 0 0 0 0 0 0 0 0 0 0 0 0 0 0 0
0 0 0 0 -0 0 0 0 0 0 0 0 0 0 0 0 0 0 0 0 0 0 0 0 0 0 0 0 0 0 0 0 0 0 0 0 0 0
0 0 0 0 0 -0 0 0 0 -0 0 0 0 0 0 0 0 0 0 0 0 0 0 0 0 0 0 0 0 0 0 0 0 0 0 0 0 0
0 0 0 0 0 0 0 0 0 0 0 0 0 0 0 0 0 0 0 0 0 0 0 0 0 0 0 0 0 0 0 0 0 0 0 0 0 0
0 0 0 0 0 0 0 0 0 0 0 0 0 0 0 0 0 0 0 0 0 0 0 0 0 0 0 0 0 0 0 0 0 0 0 0 0 0
0 -0 -0 -0 0 0 0 0 0 0 0 0 0 0 0 -0 0 0 0 0 0 0 0 0 0 0 0 0 0 0 0 0 0 0 0 0 0 0
-0 -0 0 -0 0 0 0 0 0 0 0 0 -0 -0 0 0 0 0 0 0 0 0 0 0 0 0 0 0 0 0 0 0 0 0 0 0 0 0
-0 -0 0 0 0 0 -0 -0 0 -0 -0 -0 0 0 0 0 0 0 0 0 0 0 0 0 0 0 0 0 0 0 0 0 0 0 0 0 0 0
-0 0 -0 -0 0 0 0 0 0 -0 -0 -0 -0 0 0 0 0 0 0 0 0 0 0 0 0 0 0 0 0 0 0 0 0 0 0 0 0 0
-0 -0 -0 0 0 0 0 0 0 -0 0 0 0 0 0 0 0 0 0 0 0 0 0 0 0 0 0 0 0 0 0 0 0 0 0 0 0 0
-0 0 0 0 -0 0 -0 0 0 0 0 0 0 0 0 0 0 0 0 0 0 0 0 0 0 0 0 0 0 0 0 0 0 0 0 0 0 0
0 -0 -0 0 0 0 0 0 0 0 0 0 0 0 0 0 0 0 0 0 0 0 0 0 0 0 0 0 0 0 0 0 0 0 0 0 0 0
-0 0 0 0 0 0 0 0 0 0 0 0 0 0 0 0 0 0 0 0 0 0 0 0 0 0 0 0 0 0 0 0 0 0 0 0 0 0
0 0 0 0 0 0 0 0 0 0 0 0 0 0 0 0 0 0 0 0 0 0 0 0 0 -0 -0 -0 0 0 0 0 0 0 0 0 0 0
0 0 0 0 0 0 0 0 0 0 0 0 0 0 0 0 0 0 0 0 0 0 0 0 0 -0 0 0 0 0 0 0 0 0 0 0 0 0
0 0 0 0 0 0 0 0 0 0 0 0 0 0 0 0 0 0 0 0 0 0 0 0 0 0 0 0 0 0 0 0 0 0 0 0 0 0
0 0 0 0 0 0 0 0 0 0 0 0 0 0 0 0 0 0 0 0 0 0 0 0 0 0 0 0 0 0 0 0 0 0 0 0 0 0
0 0 0 0 0 0 0 0 0 0 0 0 0 0 0 0 0 0 0 0 0 0 0 0 0 0 0 0 0 0 0 0 0 0 0 0 0 0
0 0 0 0 0 0 0 0 0 0 0 0 0 0 0 0 0 0 0 0 0 0 0 0 0 0 0 0 0 0 0 0 0 0 0 0 0 0
Wind_Speed_500mb
35 44 48 54 58 64 67 67 76 51 47 51 53 49 57 54 44 35 24 21 22 16 14 16 16 18 15 12 15 16 17 20 23 26 28 30 32 35
36 53 46 49 66 70 75 71 61 67 37 56 53 50 49 51 38 26 19 19 17 13 16 16 19 17 13 15 18 21 22 24 27 32 33 36 38 42
30 38 44 53 62 68 73 68 70 65 55 54 46 42 45 42 39 27 23 16 14 17 17 18 16 16 17 20 22 26 27 30 32 37 41 44 46 50
34 34 47 58 61 71 58 52 39 40 53 49 49 41 38 39 30 23 16 15 12 10 12 10 15 19 21 23 26 29 32 39 41 45 48 50 53 56
29 36 48 55 60 66 52 40 41 37 50 44 40 39 36 33 33 26 21 14 14 16 10 11 13 15 21 25 30 35 40 44 44 42 43 46 49 53
24 38 46 51 64 61 48 51 42 48 41 37 38 31 30 31 24 17 21 15 10 10 11 9 18 19 23 29 31 35 36 35 39 41 42 45 50 53
31 38 50 63 56 52 52 47 48 48 45 44 31 23 23 27 23 13 11 7 12 14 10 16 21 24 30 34 37 42 47 50 57 58 55 56 60 64
37 40 43 53 46 46 54 45 36 34 34 28 25 23 20 16 15 9 7 5 10 9 16 23 33 29 36 33 41 49 50 51 57 56 55 55 59 68
42 47 46 52 53 43 44 32 28 26 25 27 25 24 22 17 12 7 4 4 11 22 28 30 40 40 38 39 38 44 43 39 41 45 55 70 70 63
42 48 60 58 49 45 35 29 26 25 20 14 9 3 2 4 4 6 11 19 25 24 29 29 34 37 37 39 27 32 34 33 36 40 44 47 50 53
37 39 46 46 37 31 28 26 24 21 17 8 10 14 4 1 7 11 16 18 23 22 23 18 26 33 30 24 29 32 36 40 42 44 48 52 55 59
38 40 37 38 40 41 38 29 31 27 20 15 18 18 10 10 12 12 10 10 11 10 11 24 24 27 19 16 35 37 42 48 49 50 54 57 59 62
30 33 33 31 33 33 35 37 28 29 25 18 20 20 19 15 14 15 17 15 11 9 15 14 12 24 25 36 41 42 52 56 59 61 53 42 46 53
27 27 34 36 35 36 37 41 32 28 27 24 23 23 19 16 17 13 12 10 8 9 9 13 13 21 27 38 47 56 60 60 53 59 60 55 58 62
23 23 35 37 38 38 35 32 30 26 25 22 19 14 12 9 10 10 7 6 5 5 1 8 17 24 35 43 52 57 63 63 48 70 68 71 74 74
30 31 33 36 40 38 36 35 30 26 25 25 24 20 15 14 12 9 7 10 15 9 4 13 24 33 43 48 49 55 57 55 68 69 72 72 66 57
32 38 42 43 46 44 41 37 31 28 31 31 27 25 22 17 11 8 9 12 9 9 12 19 26 34 40 52 56 59 63 63 63 65 63 61 51 46
42 48 50 49 49 49 46 40 37 37 37 36 33 29 20 18 15 20 19 11 4 7 13 22 32 41 49 60 60 63 61 59 54 52 51 54 58 52
52 54 53 51 48 48 47 43 41 40 35 36 38 31 23 18 24 18 14 14 7 5 14 24 34 43 54 64 58 54 52 51 55 57 54 53 55 53
61 59 58 53 50 50 50 50 50 52 48 47 44 30 24 31 20 19 15 9 6 9 14 22 33 44 50 52 52 52 37 40 49 57 64 63 57 56
70 68 61 57 55 52 50 52 56 59 61 58 46 36 34 22 24 18 16 10 7 8 13 23 33 42 45 46 51 56 50 36 36 47 54 60 64 62
73 73 72 69 63 58 60 58 58 63 67 58 47 41 29 29 24 31 20 10 4 6 13 23 31 37 42 47 47 54 57 55 49 39 28 33 45 53
69 76 78 77 75 71 68 60 64 70 68 57 46 38 40 35 38 29 18 9 1 6 14 22 30 34 39 44 49 53 57 59 61 62 54 44 37 35
Wind_Direction_500mb
180 171 166 164 172 170 176 190 165 150 154 170 173 187 181 180 170 173 169 183 197 210 214 217 210 213 229 261 279 279 287 297 304 302 308 309 311 309
180 176 180 169 169 167 165 168 177 165 157 176 181 184 167 171 168 167 186 206 207 209 214 218 222 230 250 278 291 300 296 293 298 303 305 306 308 305
157 166 169 171 171 168 167 166 168 176 163 176 175 177 170 175 178 192 217 218 210 216 223 228 238 252 276 290 297 294 301 299 304 305 307 309 310 307
158 160 168 172 167 167 158 153 161 177 174 163 170 166 172 178 189 212 227 205 206 217 229 248 261 276 285 293 299 301 307 304 308 310 313 314 310 306
161 163 169 176 171 164 157 156 153 156 159 155 162 156 168 186 206 209 201 210 220 230 243 256 263 283 291 303 308 311 311 313 317 316 313 313 309 304
164 172 176 171 172 159 156 151 154 151 153 151 156 167 190 197 204 207 208 216 244 271 268 288 284 305 323 322 323 323 324 322 315 308 304 307 301 297
164 170 171 164 162 172 165 155 146 150 158 165 189 200 208 206 205 209 216 233 273 290 339 340 331 337 340 328 320 310 308 304 297 296 293 294 297 299
149 150 158 163 160 151 154 157 154 159 162 170 193 197 189 200 202 206 155 242 310 340 349 332 319 320 317 313 304 294 288 283 282 284 285 288 297 298
143 150 151 149 151 147 149 145 153 152 128 122 122 115 112 111 127 120 84 5 339 305 312 323 325 327 318 307 311 313 308 301 297 293 294 297 299 293
149 153 152 155 155 151 154 160 160 164 171 199 225 150 46 196 279 299 291 306 309 310 319 320 319 310 310 319 328 328 335 335 331 325 319 317 316 312
147 150 162 166 166 161 162 160 161 168 176 192 170 220 256 332 296 310 311 306 306 298 298 304 312 318 330 335 337 349 348 339 330 327 326 327 325 321
156 158 166 174 175 172 173 174 165 161 175 161 164 195 249 261 265 268 272 265 266 275 255 303 318 329 339 310 333 342 335 334 334 331 327 324 322 321
151 161 164 166 165 174 188 191 191 206 210 202 197 191 180 186 210 234 249 249 250 271 289 315 335 345 342 333 341 344 340 333 330 328 332 330 322 321
180 180 184 184 186 184 185 195 204 200 205 200 204 212 217 229 234 229 216 230 284 322 326 334 350 343 349 351 346 338 334 335 334 328 328 320 315 312
208 191 186 187 187 183 179 183 185 193 201 217 230 204 166 176 185 208 221 283 303 151 220 333 354 3 353 350 343 338 333 337 321 325 323 322 322 320
200 199 195 191 190 187 187 194 202 213 226 231 207 198 219 208 192 214 222 169 159 141 68 27 358 349 351 352 348 343 341 336 328 329 329 331 335 333
194 195 193 194 192 192 199 208 213 221 227 225 216 222 197 198 217 206 226 178 173 99 39 8 353 348 347 359 357 351 346 343 342 338 337 339 349 352
198 199 198 199 201 203 208 214 223 234 224 213 202 195 202 206 215 169 166 148 135 42 2 354 351 349 352 1 3 353 347 343 341 344 348 343 342 349
210 207 207 208 211 213 217 223 234 226 218 207 204 209 214 205 176 160 198 151 128 31 7 2 354 353 358 356 355 357 339 344 343 342 346 345 341 336
215 214 214 215 219 221 224 227 219 217 217 213 207 209 187 171 184 192 162 158 111 44 15 1 360 2 360 351 343 349 355 343 342 338 340 337 337 339
217 218 219 221 222 222 222 218 223 226 219 207 203 190 178 201 190 173 184 165 88 37 8 1 2 359 349 345 346 353 359 355 342 337 335 335 339 341
223 224 224 223 227 228 227 230 232 220 208 203 198 191 203 175 187 197 182 161 102 12 2 1 355 351 349 352 354 352 352 354 358 1 341 328 332 331
227 229 228 228 231 233 231 231 227 216 204 202 196 194 174 184 193 191 175 168 98 356 354 352 353 351 354 357 357 354 353 354 354 358 9 7 359 349
Wind_Speed_850mb
35 44 48 54 58 64 67 67 76 51 47 51 53 49 57 54 44 35 24 21 22 16 14 16 16 18 15 12 15 16 17 20 23 26 28 30 32 35
36 53 46 49 66 70 75 71 61 67 37 56 53 50 49 51 38 26 19 19 17 13 16 16 19 17 13 15 18 21 22 24 27 32 33 36 38 42
30 38 44 53 62 68 73 68 70 65 55 54 46 42 45 42 39 27 23 16 14 17 17 18 16 16 17 20 22 26 27 30 32 37 41 44 46 50
34 34 47 58 61 71 58 52 39 40 53 49 49 41 38 39 30 23 16 15 12 10 12 10 15 19 21 23 26 29 32 39 41 45 48 50 53 56
29 36 48 55 60 66 52 40 41 37 50 44 40 39 36 33 33 26 21 14 14 16 10 11 13 15 21 25 30 35 40 44 44 42 43 46 49 53
24 38 46 51 64 61 48 51 42 48 41 37 38 31 30 31 24 17 21 15 10 10 11 9 18 19 23 29 31 35 36 35 39 41 42 45 50 53
31 38 50 63 56 52 52 47 48 48 45 44 31 23 23 27 23 13 11 7 12 14 10 16 21 24 30 34 37 42 47 50 57 58 55 56 60 64
37 40 43 53 46 46 54 45 36 34 34 28 25 23 20 16 15 9 7 5 10 9 16 23 33 29 36 33 41 49 50 51 57 56 55 55 59 68
42 47 46 52 53 43 44 32 28 26 25 27 25 24 22 17 12 7 4 4 11 22 28 30 40 40 38 39 38 44 43 39 41 45 55 70 70 63
42 48 60 58 49 45 35 29 26 25 20 14 9 3 2 4 4 6 11 19 25 24 29 29 34 37 37 39 27 32 34 33 36 40 44 47 50 53
37 39 46 46 37 31 28 26 24 21 17 8 10 14 4 1 7 11 16 18 23 22 23 18 26 33 30 24 29 32 36 40 42 44 48 52 55 59
38 40 37 38 40 41 38 29 31 27 20 15 18 18 10 10 12 12 10 10 11 10 11 24 24 27 19 16 35 37 42 48 49 50 54 57 59 62
30 33 33 31 33 33 35 37 28 29 25 18 20 20 19 15 14 15 17 15 11 9 15 14 12 24 25 36 41 42 52 56 59 61 53 42 46 53
27 27 34 36 35 36 37 41 32 28 27 24 23 23 19 16 17 13 12 10 8 9 9 13 13 21 27 38 47 56 60 60 53 59 60 55 58 62
23 23 35 37 38 38 35 32 30 26 25 22 19 14 12 9 10 10 7 6 5 5 1 8 17 24 35 43 52 57 63 63 48 70 68 71 74 74
30 31 33 36 40 38 36 35 30 26 25 25 24 20 15 14 12 9 7 10 15 9 4 13 24 33 43 48 49 55 57 55 68 69 72 72 66 57
32 38 42 43 46 44 41 37 31 28 31 31 27 25 22 17 11 8 9 12 9 9 12 19 26 34 40 52 56 59 63 63 63 65 63 61 51 46
42 48 50 49 49 49 46 40 37 37 37 36 33 29 20 18 15 20 19 11 4 7 13 22 32 41 49 60 60 63 61 59 54 52 51 54 58 52
52 54 53 51 48 48 47 43 41 40 35 36 38 31 23 18 24 18 14 14 7 5 14 24 34 43 54 64 58 54 52 51 55 57 54 53 55 53
61 59 58 53 50 50 50 50 50 52 48 47 44 30 24 31 20 19 15 9 6 9 14 22 33 44 50 52 52 52 37 40 49 57 64 63 57 56
70 68 61 57 55 52 50 52 56 59 61 58 46 36 34 22 24 18 16 10 7 8 13 23 33 42 45 46 51 56 50 36 36 47 54 60 64 62
73 73 72 69 63 58 60 58 58 63 67 58 47 41 29 29 24 31 20 10 4 6 13 23 31 37 42 47 47 54 57 55 49 39 28 33 45 53
69 76 78 77 75 71 68 60 64 70 68 57 46 38 40 35 38 29 18 9 1 6 14 22 30 34 39 44 49 53 57 59 61 62 54 44 37 35
Wind_Direction_850mb
180 171 166 164 172 170 176 190 165 150 154 170 173 187 181 180 170 173 169 183 197 210 214 217 210 213 229 261 279 279 287 297 304 302 308 309 311 309
180 176 180 169 169 167 165 168 177 165 157 176 181 184 167 171 168 167 186 206 207 209 214 218 222 230 250 278 291 300 296 293 298 303 305 306 308 305
157 166 169 171 171 168 167 166 168 176 163 176 175 177 170 175 178 192 217 218 210 216 223 228 238 252 276 290 297 294 301 299 304 305 307 309 310 307
158 160 168 172 167 167 158 153 161 177 174 163 170 166 172 178 189 212 227 205 206 217 229 248 261 276 285 293 299 301 307 304 308 310 313 314 310 306
161 163 169 176 171 164 157 156 153 156 159 155 162 156 168 186 206 209 201 210 220 230 243 256 263 283 291 303 308 311 311 313 317 316 313 313 309 304
164 172 176 171 172 159 156 151 154 151 153 151 156 167 190 197 204 207 208 216 244 271 268 288 284 305 323 322 323 323 324 322 315 308 304 307 301 297
164 170 171 164 162 172 165 155 146 150 158 165 189 200 208 206 205 209 216 233 273 290 339 340 331 337 340 328 320 310 308 304 297 296 293 294 297 299
149 150 158 163 160 151 154 157 154 159 162 170 193 197 189 200 202 206 155 242 310 340 349 332 319 320 317 313 304 294 288 283 282 284 285 288 297 298
143 150 151 149 151 147 149 145 153 152 128 122 122 115 112 111 127 120 84 5 339 305 312 323 325 327 318 307 311 313 308 301 297 293 294 297 299 293
149 153 152 155 155 151 154 160 160 164 171 199 225 150 46 196 279 299 291 306 309 310 319 320 319 310 310 319 328 328 335 335 331 325 319 317 316 312
147 150 162 166 166 161 162 160 161 168 176 192 170 220 256 332 296 310 311 306 306 298 298 304 312 318 330 335 337 349 348 339 330 327 326 327 325 321
156 158 166 174 175 172 173 174 165 161 175 161 164 195 249 261 265 268 272 265 266 275 255 303 318 329 339 310 333 342 335 334 334 331 327 324 322 321
151 161 164 166 165 174 188 191 191 206 210 202 197 191 180 186 210 234 249 249 250 271 289 315 335 345 342 333 341 344 340 333 330 328 332 330 322 321
180 180 184 184 186 184 185 195 204 200 205 200 204 212 217 229 234 229 216 230 284 322 326 334 350 343 349 351 346 338 334 335 334 328 328 320 315 312
208 191 186 187 187 183 179 183 185 193 201 217 230 204 166 176 185 208 221 283 303 151 220 333 354 3 353 350 343 338 333 337 321 325 323 322 322 320
200 199 195 191 190 187 187 194 202 213 226 231 207 198 219 208 192 214 222 169 159 141 68 27 358 349 351 352 348 343 341 336 328 329 329 331 335 333
194 195 193 194 192 192 199 208 213 221 227 225 216 222 197 198 217 206 226 178 173 99 39 8 353 348 347 359 357 351 346 343 342 338 337 339 349 352
198 199 198 199 201 203 208 214 223 234 224 213 202 195 202 206 215 169 166 148 135 42 2 354 351 349 352 1 3 353 347 343 341 344 348 343 342 349
210 207 207 208 211 213 217 223 234 226 218 207 204 209 214 205 176 160 198 151 128 31 7 2 354 353 358 356 355 357 339 344 343 342 346 345 341 336
215 214 214 215 219 221 224 227 219 217 217 213 207 209 187 171 184 192 162 158 111 44 15 1 360 2 360 351 343 349 355 343 342 338 340 337 337 339
217 218 219 221 222 222 222 218 223 226 219 207 203 190 178 201 190 173 184 165 88 37 8 1 2 359 349 345 346 353 359 355 342 337 335 335 339 341
223 224 224 223 227 228 227 230 232 220 208 203 198 191 203 175 187 197 182 161 102 12 2 1 355 351 349 352 354 352 352 354 358 1 341 328 332 331
227 229 228 228 231 233 231 231 227 216 204 202 196 194 174 184 193 191 175 168 98 356 354 352 353 351 354 357 357 354 353 354 354 358 9 7 359 349